Weather Roundup
Issued by NWS Springfield, MO

Home | Current Version | Previous Version | Text Only | Print | Product List | Glossary On
Versions: 1 2 3 4 5 6 7 8 9 10 11 12 13 14 15 16 17 18 19 20 21 22 23 24 25 26 27 28 29 30 31 32 33 34 35 36 37 38 39 40 41 42 43 44 45 46 47 48 49 50
000
NZUS99 KSGF 190007
HRRSGF

HOURLY WEATHER
NATIONAL WEATHER SERVICE SPRINGFIELD MO
600 PM CST SUN FEB 18 2018

......SGF CWA......

CITY           SKY/WX    TMP DP  RH WIND       PRES   REMARKS
SPRINGFIELD    CLOUDY    51  38  60 SE24G33   29.85F
6HR MIN TEMP:  47; 6HR MAX TEMP:  55;

JOPLIN         CLOUDY    55  43  63 S17       29.82F
6HR MIN TEMP:  52; 6HR MAX TEMP:  59;

WEST PLAINS    CLOUDY    48  36  63 SE12      29.98F
6HR MIN TEMP:  45; 6HR MAX TEMP:  51;

ROLLA          CLOUDY    48  31  51 S16       29.91F
6HR MIN TEMP:  48; 6HR MAX TEMP:  52;

OSAGE BEACH    CLOUDY    51  32  48 S14G23    29.87F
BRANSON        CLOUDY    50  43  76 SE17G23   29.94S

......SURROUNDING SGF CWA......

CITY           SKY/WX    TMP DP  RH WIND       PRES   REMARKS
CHANUTE        CLOUDY    53  42  66 S23G29    29.75F
PARSONS        CLOUDY    53  43  68 S10G21    29.79S
COFFEYVILLE    CLOUDY    54  44  69 S13G30    29.78F
EMPORIA        CLOUDY    51  40  65 S22G32    29.68S
GROVE OK       CLOUDY    54  45  71 S15       29.86F
ROGERS AR      CLOUDY    52  43  71 SE9       29.89S
SILOAM SPRINGS CLOUDY    52  44  74 S9        29.88F
HARRISON AR    CLOUDY    49  43  80 SE20      29.95S
NEAR YELLVILLE CLOUDY    51  43  74 S7        30.00F

......KANSAS AND MISSOURI......

CITY           SKY/WX    TMP DP  RH WIND       PRES   REMARKS
KANSAS CTY INT CLOUDY    55  33  43 S14G23    29.68S
DOWNTOWN KC    CLOUDY    58  34  40 S15       29.70F
COLUMBIA       CLOUDY    51  27  39 S21G29    29.83F
SEDALIA        CLOUDY    53  34  48 S23       29.79F
ST JOSEPH      MOCLDY    54  36  50 S15       29.67R
ST LOUIS       CLOUDY    49  32  52 SE16      29.95F
SPIRIT OF STL  CLOUDY    52  26  36 S10G20    29.92F
KIRKSVILLE     CLEAR     49  30  48 S14       29.75F
WICHITA        PTCLDY    53  45  74 S26G36    29.65F
TOPEKA         CLOUDY    55  41  59 S20G25    29.68R
OLATHE         MOCLDY    54  36  50 S21G29    29.68F

......TENNESSEE......

CITY           SKY/WX    TMP DP  RH WIND       PRES   REMARKS
MEMPHIS        CLOUDY    55  49  80 S12       30.10F
NASHVILLE      MOCLDY    56  35  45 E5        30.15S

......ARKANSAS.......

CITY           SKY/WX    TMP DP  RH WIND       PRES   REMARKS
FAYETTEVILLE   CLOUDY    50  45  83 S7        29.90F
FT SMITH       CLOUDY    52  46  80 E8        29.94F
LITTLE ROCK    CLOUDY    48  48 100 SE8       30.04F FOG

......OKLAHOMA.......

CITY           SKY/WX    TMP DP  RH WIND       PRES   REMARKS
TULSA          CLOUDY    52  48  86 S20       29.82F
PONCA CITY     CLOUDY    53  45  74 S16G31    29.72F
MCALESTER      CLOUDY    50  49  96 S9G17     29.89F
OKLAHOMA CITY  DRIZZLE   52  51  97 S17       29.78S FOG

......IOWA............

CITY           SKY/WX    TMP DP  RH WIND       PRES   REMARKS
DES MOINES     CLOUDY    47  28  47 S7        29.68R
QUAD CITIES    FAIR      42  30  62 SE15G26   29.82F

......ILLINOIS........

CITY           SKY/WX    TMP DP  RH WIND       PRES   REMARKS
QUINCY         CLEAR     47  28  47 SE16      29.83F
CHICAGO        MOCLDY    36  29  75 SE18      29.99F WCI  26



USA.gov is the U.S. government's official web portal to all federal, state and local government web resources and services.